Weather History for Nashville, TN

Change the Weather History Date:

Monday, January 6, 2014

  Actual Average Record
Temperature  
Mean Temperature 12 °F 38 °F  
Max Temperature 20 °F 47 °F 74 °F (1890)
Min Temperature 4 °F 29 °F -10 °F (1884)
Degree Days  
Heating Degree Days 53 28  
Month to date heating degree days 215 163  
Since 1 July heating degree days 1683 1600  
Cooling Degree Days 0 0  
Month to date cooling degree days 0 0  
Year to date cooling degree days 0 0  
Moisture  
Dew Point -4 °F    
Average Humidity 61    
Maximum Humidity 73    
Minimum Humidity 49    
Precipitation  
Precipitation T in 0.12 in 3.08 in (1913)
Month to date precipitation 0.61 0.70  
Year to date precipitation 0.61 0.70  
Snow  
Snow T in 0.10 in 4.00 in (1977)
Month to date snowfall 0.2 0.4  
Since 1 July snowfall 1.1 0.9  
Snow Depth T in    
Sea Level Pressure  
Sea Level Pressure 30.41 in    
Wind  
Wind Speed 11 mph (NW)    
Max Wind Speed 25 mph    
Max Gust Speed 35 mph    
Visibility 10 miles    
Events Snow    
T = Trace of Precipitation, MM = Missing Value Source: NWS Daily Summary

Daily Weather History Graph

Daily Weather History Graph

Search for Another Location

Airport:

Trip Planner

Search our weather history database for the weather conditions in past years. The results will help you decide how hot, cold, wet, or windy it might be!

Date:

Astronomy

Jan. 06, 2014 Rise Set
Actual Time 6:58 AM CST 4:47 PM CST
Civil Twilight 6:29 AM CST 5:15 PM CST
Nautical Twilight 5:57 AM CST 5:47 PM CST
Astronomical Twilight 5:26 AM CST 6:18 PM CST
Moon 10:24 AM CST (1/6) 11:07 PM CST (1/6)
Length of Visible Light 10h 45m
Length of Day
9h 49m
Waxing Crescent, 35% of the Moon is Illuminated
Jan 6
Waxing Crescent
Jan 7
First Quarter
Jan 15
Full
Jan 23
Last Quarter
Jan 30
New

Hourly Weather History & Observations

Time (CST) Temp. Windchill Dew Point Humidity Pressure Visibility Wind Dir Wind Speed Gust Speed Precip Events Conditions
12:53 AM 19.0 °F 2.7 °F 10.9 °F 71% 30.14 in 9.0 mi NW 20.7 mph 27.6 mph 0.00 in   Overcast
1:53 AM 17.1 °F 1.0 °F 9.0 °F 71% 30.19 in 9.0 mi NW 18.4 mph 26.5 mph 0.00 in Snow Light Snow
2:32 AM 15.8 °F -0.2 °F 5.0 °F 62% 30.21 in 10.0 mi NNW 17.3 mph 26.5 mph 0.00 in   Overcast
2:53 AM 14.0 °F -0.8 °F 3.9 °F 64% 30.24 in 10.0 mi NNW 13.8 mph 21.9 mph 0.00 in   Overcast
3:53 AM 10.9 °F -5.4 °F -0.0 °F 61% 30.27 in 10.0 mi NW 15.0 mph 21.9 mph N/A   Clear
4:53 AM 9.0 °F -6.6 °F -0.9 °F 64% 30.30 in 10.0 mi NW 12.7 mph 19.6 mph N/A   Mostly Cloudy
5:14 AM 8.6 °F -11.4 °F -4.0 °F 57% 30.31 in 10.0 mi NW 21.9 mph 29.9 mph N/A   Scattered Clouds
5:53 AM 7.0 °F -10.4 °F -2.9 °F 64% 30.34 in 10.0 mi NNW 15.0 mph 19.6 mph N/A   Partly Cloudy
6:53 AM 7.0 °F -5.7 °F -5.1 °F 58% 30.38 in 10.0 mi NW 8.1 mph 20.7 mph N/A   Mostly Cloudy
7:12 AM 6.8 °F -11.8 °F -5.8 °F 56% 30.36 in 10.0 mi NW 17.3 mph 23.0 mph N/A   Scattered Clouds
7:53 AM 7.0 °F -9.8 °F -5.1 °F 58% 30.41 in 10.0 mi NW 13.8 mph - N/A   Scattered Clouds
8:22 AM 6.8 °F -8.6 °F -4.0 °F 61% 30.39 in 10.0 mi NW 11.5 mph 20.7 mph N/A   Mostly Cloudy
8:53 AM 6.1 °F -10.2 °F -9.0 °F 50% 30.44 in 10.0 mi NNW 12.7 mph 25.3 mph 0.00 in   Scattered Clouds
9:53 AM 8.1 °F -7.7 °F -7.1 °F 50% 30.45 in 10.0 mi NW 12.7 mph 19.6 mph N/A   Scattered Clouds
10:53 AM 8.1 °F -7.7 °F -5.1 °F 55% 30.45 in 10.0 mi NW 12.7 mph 23.0 mph N/A   Mostly Cloudy
11:39 AM 8.6 °F -7.7 °F -2.2 °F 62% 30.39 in 7.0 mi NW 13.8 mph 19.6 mph 0.00 in Snow Light Snow
11:53 AM 9.0 °F -5.1 °F -2.0 °F 61% 30.43 in 7.0 mi NW 10.4 mph 19.6 mph 0.00 in   Mostly Cloudy
12:53 PM 10.0 °F -2.9 °F -5.1 °F 51% 30.41 in 10.0 mi NW 9.2 mph - 0.00 in   Mostly Cloudy
1:53 PM 10.9 °F -0.8 °F -5.1 °F 49% 30.42 in 10.0 mi WNW 8.1 mph 23.0 mph N/A   Mostly Cloudy
2:53 PM 10.0 °F -5.2 °F -6.0 °F 48% 30.44 in 10.0 mi WNW 12.7 mph 23.0 mph N/A   Mostly Cloudy
3:53 PM 10.9 °F -2.6 °F -6.0 °F 47% 30.45 in 10.0 mi WNW 10.4 mph 18.4 mph N/A   Mostly Cloudy
4:53 PM 9.0 °F -5.1 °F -6.0 °F 51% 30.46 in 10.0 mi WNW 10.4 mph 17.3 mph N/A   Partly Cloudy
5:53 PM 8.1 °F -6.2 °F -7.1 °F 50% 30.50 in 10.0 mi WNW 10.4 mph - N/A   Partly Cloudy
6:53 PM 7.0 °F -9.1 °F -7.1 °F 53% 30.52 in 10.0 mi NW 12.7 mph - N/A   Mostly Cloudy
7:53 PM 6.1 °F -10.2 °F -5.1 °F 60% 30.54 in 10.0 mi WNW 12.7 mph 17.3 mph N/A   Mostly Cloudy
8:53 PM 6.1 °F -7.8 °F -6.0 °F 58% 30.56 in 10.0 mi WNW 9.2 mph - N/A   Scattered Clouds
9:53 PM 5.0 °F -5.6 °F -6.0 °F 61% 30.58 in 10.0 mi WNW 5.8 mph - N/A   Partly Cloudy
10:53 PM 3.9 °F -3.4 °F -6.0 °F 64% 30.58 in 10.0 mi West 3.5 mph - N/A   Partly Cloudy
11:53 PM 3.9 °F -3.4 °F -6.0 °F 64% 30.58 in 10.0 mi West 3.5 mph - N/A   Partly Cloudy